User: anonymous   Login
Location: Splawn
(30.9202°N, 96.9858°W)
Time: 19:51:07
(UTC+00:00)
Language:

Explorer 11/Cluster Stage 4 - Orbit

View from above orbital plane
View from above orbital plane
View from above satellite
View from above satellite

Ground track
Ground track

The orbit data is extracted from the following two-line orbital elements,

1   107U 61013A   20052.48279982 +.00000299 +00000-0 +21468-4 0  9992
2   107 028.7865 122.0421 0547189 108.9961 257.0690 14.08900938949717
Epoch (UTC): 21 February 2020 11:35:13
Eccentricity: 0.0547189
inclination: 28.7865°
perigee height: 467 km
apogee height: 1259 km
right ascension of ascending node: 122.0421°
argument of perigee: 108.9961°
revolutions per day: 14.08900938
mean anomaly at epoch: 257.0690°
orbit number at epoch: 94971

The dashed part of the orbit path shows where the satellite is in the earth's shadow,  

DLR